This is the latest recevied weather packets stored in our database for station/object SV7GBF-2. If no packets are shown the sender has not sent any weather packets the latest 10 day(s).
| Time | Temp. | Humidity | Pressure | Rain* | Wind** | Luminosity | Snow |
|---|---|---|---|---|---|---|---|
| 1787862248 | 26.67° C | 33% | 1016 hPa | - | - | - | - |
| 1787860448 | 27.22° C | 32% | 1016 hPa | - | - | - | - |
| 1787858651 | 28.89° C | 29% | 1016 hPa | - | - | - | - |
| 1787856849 | 28.89° C | 27% | 1016 hPa | - | - | - | - |
| 1787856248 | 28.89° C | 27% | 1016 hPa | - | - | - | - |
| 1787855648 | 29.44° C | 27% | 1016 hPa | - | - | - | - |
| 1787855048 | 29.44° C | 26% | 1016 hPa | - | - | - | - |
| 1787853848 | 30° C | 25% | 1016 hPa | - | - | - | - |
| 1787853248 | 30° C | 29% | 1016 hPa | - | - | - | - |
| 1787852649 | 30° C | 30% | 1016 hPa | - | - | - | - |
| 1787852048 | 30° C | 39% | 1015 hPa | - | - | - | - |
| 1787851448 | 30° C | 40% | 1016 hPa | - | - | - | - |
| 1787850848 | 30° C | 37% | 1016 hPa | - | - | - | - |
| 1787850249 | 31.11° C | 28% | 1015 hPa | - | - | - | - |
| 1787849048 | 31.67° C | 18% | 1015 hPa | - | - | - | - |
| 1787848448 | 32.22° C | 12% | 1016 hPa | - | - | - | - |
| 1787847848 | 32.78° C | 9% | 1015 hPa | - | - | - | - |
| 1787847248 | 33.33° C | 9% | 1015 hPa | - | - | - | - |
| 1787846648 | 33.33° C | 9% | 1015 hPa | - | - | - | - |
| 1787846048 | 33.89° C | 9% | 1015 hPa | - | - | - | - |
| 1787845449 | 34.44° C | 9% | 1015 hPa | - | - | - | - |
| 1787844848 | 34.44° C | 9% | 1015 hPa | - | - | - | - |
| 1787844248 | 34.44° C | 9% | 1015 hPa | - | - | - | - |
| 1787843648 | 35° C | 9% | 1015 hPa | - | - | - | - |
| 1787843047 | 34.44° C | 9% | 1015 hPa | - | - | - | - |
* Rain since midnight (hover to see other rain measurements)
** Current wind speed in m/s (hover to see current wind gust speed)